Volver al catálogo

FLOCK 4G 25

ActivoCienciaSSO
NORAD 62646·PAYLOAD·🇺🇸 United States

Lanzado Jan 14, 2025 desde Vandenberg Space Force Base

Loading…

Próximos Pases (próximas 24 horas)

TLE

ActualizadoSource: CelesTrak SupGP

Época: Sep 14, 2026, 04:44 UTC

1 62646C 25009AP  26257.19771991  .00013102  00000+0  43829-3 0  2578
2 62646  97.3967 338.9544 0001871  37.9201  27.6025 15.31027836    11

Sigue FLOCK 4G 25 en tiempo real con AllMySat

Download on the App Store